Regional Weather Roundup
Issued by NWS

Home | Current Version | Previous Version | Graphics & Text | Print | Product List | Glossary On
Versions: 1 2 3 4 5 6 7 8 9 10 11 12 13 14 15 16 17 18 19 20 21 22 23 24 25 26 27 28 29 30 31 32 33 34 35 36 37 38 39 40 41 42 43 44 45 46 47 48 49 50
000
ASUS43 KMPX 211601
RWRMN
WEATHER ROUNDUP FOR MINNESOTA
NATIONAL WEATHER SERVICE TWIN CITIES/CHANHASSEN MN
1100 AM CDT THU AUG 21 2014


NOTE: "FAIR" INDICATES FEW OR NO CLOUDS BELOW 12,000 FEET WITH NO
SIGNIFICANT WEATHER AND/OR OBSTRUCTIONS TO VISIBILITY. N/A MEANS
CURRENT SKY AND/OR WEATHER CONDITIONS ARE NOT AVAILABLE.

MNZ060>063-068>070-211700-
   Twin Cities Metro

CITY           SKY/WX    TMP DP  RH WIND       PRES   REMARKS
TWIN CITIES    CLOUDY    78  69  73 SE10      29.78R
ST PAUL        CLOUDY    76  70  82 SE9       29.78S
CRYSTAL        CLOUDY    77  69  76 SE8       29.77R
BLAINE         PTSUNNY   75  72  88 SE8       29.79R
LAKEVILLE      CLOUDY    75  70  83 S9G16     29.78S
EDEN PRAIRIE   CLOUDY    78  70  76 S12       29.76F
SOUTH ST PAUL  MOSUNNY   78  69  74 SE8       29.78S
LAKE ELMO      CLOUDY    73  70  88 SE7       29.81S
$$
MNZ001>005-007-008-013>017-022>024-027-028-211700-
   Northwest Minnesota

CITY           SKY/WX    TMP DP  RH WIND       PRES   REMARKS
BEMIDJI        CLOUDY    66  63  87 E10       29.82F
HALLOCK          N/A     72  66  83 SE5       29.79R
ROSEAU         CLOUDY    66  61  82 E10       29.84S
WARROAD        CLOUDY    66  63  88 E9        29.86S
THIEF RVR FALL CLOUDY    70  64  83 E6        29.81F
CROOKSTON      MOSUNNY   73  66  78 SE7       29.79S
FOSSTON        PTSUNNY   72  66  83 CALM      29.81F
DETROIT LAKES  CLOUDY    70  64  83 SE8       29.81S
MOORHEAD       CLOUDY    73  72  94 SE5       29.77S
PARK RAPIDS    CLOUDY    73  65  75 E8        29.81S
MAHNOMEN       CLOUDY    71  66  82 SE8       29.80R
$$
MNZ006-009>011-018-025>026-211700-
   North Central Minnesota

CITY           SKY/WX    TMP DP  RH WIND       PRES   REMARKS
BAUDETTE       CLOUDY    66  61  84 SE8       29.86R
FLAG ISLAND    CLOUDY    64  61  88 SE8       29.86R
INTL FALLS     CLOUDY    66  59  78 SE10      29.88F
WASKISH        CLOUDY    66  63  88 E3        29.85S
BIG FORK       PTSUNNY   68  61  77 SE8       29.86F
LONGVILLE      CLOUDY    66  64  94 CALM      29.83S
GRAND RAPIDS   CLOUDY    64  61  88 E9        29.86F
CRANE LAKE     CLOUDY    68  61  77 CALM      29.91F
ORR            CLOUDY    66  57  72 E5        29.86F
COOK           PTSUNNY   64  61  88 E6        29.89F
WALKER         CLOUDY    65  63  91 E6        29.83S
$$
MNZ012-019>021-037-211700-
   Northeast Minnesota

CITY           SKY/WX    TMP DP  RH WIND       PRES   REMARKS
DULUTH         CLOUDY    63  60  90 E12       29.89R
ELY            CLOUDY    66  57  72 E7        29.92S
HIBBING        PTSUNNY   69  61  75 E9        29.88S
EVELETH        CLOUDY    64  59  82 E5        29.90S
DULUTH HARBOR  CLOUDY    63  61  94 NE20      29.89R
TWO HARBORS    CLOUDY    64  57  77 E13       29.89R
SILVER BAY     PTSUNNY   63  63 100 N9        29.90R
GRAND MARAIS     N/A     60  59  96 E12       29.95F
G MARAIS ARPRT PTSUNNY   63  55  77 SE6       29.98S
$$
MNZ029>031-032-039>041-046>048-054>057-064-211700-
   West Central Minnesota

CITY           SKY/WX    TMP DP  RH WIND       PRES   REMARKS
FERGUS FALLS   CLOUDY    73  64  73 SE6       29.77R
WHEATON        CLOUDY    72  66  83 S5        29.77R
MORRIS         SUNNY     75  72  88 S8        29.75R
ALEXANDRIA     CLOUDY    72  67  84 SE6       29.80R
ELBOW LAKE     CLOUDY    71  68  90 SE8       29.77R
WADENA         CLOUDY    70  66  88 E3        29.80S
APPLETON       CLOUDY    77  70  78 S7        29.75R
BENSON         CLOUDY    75  72  88 S7        29.75S
ORTONVILLE     PTSUNNY   75  68  78 SW3       29.75R
MADISON        SUNNY     77  72  83 S3        29.75R
WILLMAR        PTSUNNY   77  72  83 S3        29.76S
$$
MNZ033>034-036-042>043-049>051-058-059-211700-
   Central Minnesota

CITY           SKY/WX    TMP DP  RH WIND       PRES   REMARKS
ST CLOUD       CLOUDY    72  68  87 E6        29.78R
SAUK CENTRE    CLOUDY    73  68  86 SE7       29.78R
PAYNESVILLE    CLOUDY    71  68  90 E6        29.77S
AITKIN         CLOUDY    66  61  82 NE9       29.82S
PINE RIVER     CLOUDY    70  64  83 E7        29.85S
BRAINERD       CLOUDY    69  66  90 VRB6      29.81S
STAPLES        CLOUDY    72  64  78 CALM      29.79F
LONG PRAIRIE   CLOUDY    70  66  88 E5        29.79S
LITTLE FALLS   CLOUDY    72  64  78 E7        29.79R
LITCHFIELD     CLOUDY    75  73  94 S6        29.77S
BUFFALO        CLOUDY    74  69  82 SE6       29.78F
MAPLE LAKE     CLOUDY    74  71  90 SE3       29.78S
$$
MNZ037-044-045-052-053-211700-
   East Central Minnesota

CITY           SKY/WX    TMP DP  RH WIND       PRES   REMARKS
PRINCETON      CLOUDY    75  70  83 SE8       29.79R
MORA           CLOUDY    64  63  94 E5        29.82
CAMBRIDGE      PTSUNNY   75  64  69 SE8       29.78R
RUSH CITY      CLOUDY    71  68  92 SE10      29.81S
MOOSE LAKE     CLOUDY    63  61  94 E6        29.82R
HINCKLEY       CLOUDY    70  66  88 E6        29.82R
CLOQUET        CLOUDY    63  61  94 E12       29.87R FOG
MCGREGOR       CLOUDY    63  63 100 E5        29.86R
$$
MNZ071>073-080-081-089-090-097-098-211700-
   Southwest Minnesota

CITY           SKY/WX    TMP DP  RH WIND       PRES   REMARKS
MONTEVIDEO     CLOUDY    75  75 100 SW6       29.76R
GRANITE FALLS  CLOUDY   N/A N/A N/A SE7       29.76S
CANBY          MOSUNNY   81  73  76 SW6       29.75S
MARSHALL       SUNNY     82  72  69 W6        29.74R
REDWOOD FALLS  MOSUNNY   81  73  76 S13       29.74F
OLIVIA         PTSUNNY   77  70  78 S12       29.74F
PIPESTONE      SUNNY     81  73  78 W6        29.78R
WINDOM         PTSUNNY   81  72  74 S8        29.76F
WORTHINGTON    PTSUNNY   82  19   9 SW9G17    29.79S
JACKSON        PTSUNNY   77  70  78 S6        29.78F
TRACY          SUNNY     81  74  79 SW7       29.76R
SLAYTON        MOSUNNY   81  73  77 CALM      29.78S
$$
MNZ065>067-074>077-082>085-091>093-211700-
   South Central Minnesota

CITY           SKY/WX    TMP DP  RH WIND       PRES   REMARKS
MANKATO        MOSUNNY   79  70  73 S10G20    29.77F
NEW ULM        MOSUNNY   79  75  89 S13       29.75F
ST JAMES       PTSUNNY   82  72  69 S8        29.76F
FAIRMONT       CLOUDY    77  68  73 MISG      29.79R
GLENCOE        CLOUDY    78  70  75 S8        29.76F
FARIBAULT      MOSUNNY   82  68  61 S13G18    29.79F
OWATONNA       MOSUNNY   81  70  69 S16       29.80S
WASECA         MOSUNNY   77  64  65 S18G25    29.81S
ALBERT LEA     PTSUNNY   72  72 100 S15G22    29.83S
$$
MNZ078>079-086>088-094>096-211700-
   Southeast Minnesota

CITY           SKY/WX    TMP DP  RH WIND       PRES   REMARKS
ROCHESTER      CLOUDY    74  69  85 S13       29.84R
RED WING       PTSUNNY   79  70  73 SE9       29.79S
STANTON        MOSUNNY   78  69  73 S8G16     29.77F
DODGE CENTER   PTSUNNY   77  72  83 S12G20    29.82R
WINONA         CLOUDY    73  70  88 E6        29.81S
AUSTIN         PTSUNNY   72  70  94 S12G20    29.80S
PRESTON        CLOUDY    68  69 100 S17G25    29.81F
$$
ABBREVIATIONS USED IN REMARKS
   TC - TEMPERATURES IN CELSIUS
  WCI - WIND CHILL INDEX
   HX - HEAT INDEX
  VSB - VISIBILITY
$$


USA.gov is the U.S. government's official web portal to all federal, state and local government web resources and services.